User: anonymous   Login
Location: Brno
(49.2000°N, 16.6330°E)
Time: 02:46:32
(UTC+01:00)
Language:

ISS - Orbit

View from above orbital plane
View from above orbital plane
View from above satellite
View from above satellite

Ground track
Ground track

The orbit data is extracted from the following two-line orbital elements,

1 25544U 98067A   15032.83297421  .00014400  00000-0  22345-3 0  8095
2 25544 051.6471 039.9214 0005804 316.9084 102.7516 15.54231725926972
Epoch (UTC): 01 February 2015 19:59:28
Eccentricity: 0.0005804
inclination: 51.6471°
perigee height: 400 km
apogee height: 408 km
right ascension of ascending node: 39.9214°
argument of perigee: 316.9084°
revolutions per day: 15.54231725
mean anomaly at epoch: 102.7516°
orbit number at epoch: 92697

The dashed part of the orbit path shows where the satellite is in the earth's shadow,  

DLR